TimeCDT,TemperatureF,Dew PointF,Humidity,Sea Level PressureIn,VisibilityMPH,Wind Direction,Wind SpeedMPH,Gust SpeedMPH,PrecipitationIn,Events,Conditions,WindDirDegrees,DateUTC
12:15 AM,78.8,62.6,57,29.84,10.0,South,13.8,20.7,N/A,,Clear,180,2012-10-22 05:15:00
12:55 AM,78.8,62.6,57,29.85,10.0,South,16.1,23.0,N/A,,Clear,180,2012-10-22 05:55:00
1:35 AM,78.8,62.6,57,29.85,10.0,South,15.0,18.4,N/A,,Clear,190,2012-10-22 06:35:00
2:35 AM,77.0,62.6,61,29.85,10.0,South,12.7,21.9,N/A,,Clear,180,2012-10-22 07:35:00
2:55 AM,75.2,62.6,65,29.86,10.0,South,13.8,24.2,N/A,,Clear,180,2012-10-22 07:55:00
3:15 AM,75.2,64.4,69,29.86,10.0,South,12.7,25.3,N/A,,Clear,180,2012-10-22 08:15:00
3:55 AM,73.4,62.6,69,29.87,10.0,SSW,12.7,-,N/A,,Clear,200,2012-10-22 08:55:00
4:15 AM,73.4,64.4,73,29.87,10.0,South,12.7,-,N/A,,Clear,190,2012-10-22 09:15:00
4:35 AM,73.4,64.4,73,29.88,10.0,South,11.5,-,N/A,,Clear,190,2012-10-22 09:35:00
4:55 AM,73.4,64.4,73,29.89,10.0,South,12.7,17.3,N/A,,Clear,190,2012-10-22 09:55:00
5:15 AM,73.4,64.4,73,29.89,10.0,SSW,12.7,17.3,N/A,,Clear,200,2012-10-22 10:15:00
5:35 AM,73.4,64.4,73,29.90,10.0,SSW,9.2,-,N/A,,Clear,200,2012-10-22 10:35:00
5:55 AM,73.4,64.4,73,29.91,10.0,SSW,8.1,-,N/A,,Clear,200,2012-10-22 10:55:00
6:15 AM,71.6,64.4,78,29.91,10.0,South,8.1,-,N/A,,Clear,190,2012-10-22 11:15:00
6:35 AM,71.6,64.4,78,29.92,10.0,South,5.8,-,N/A,,Clear,190,2012-10-22 11:35:00
7:15 AM,71.6,64.4,78,29.93,10.0,SSW,4.6,-,N/A,,Mostly Cloudy,210,2012-10-22 12:15:00
7:35 AM,71.6,64.4,78,29.93,10.0,South,6.9,-,N/A,,Overcast,180,2012-10-22 12:35:00
7:55 AM,71.6,64.4,78,29.95,10.0,SSW,5.8,-,N/A,,Overcast,210,2012-10-22 12:55:00
8:15 AM,71.6,64.4,78,29.94,10.0,SSE,6.9,-,N/A,,Mostly Cloudy,160,2012-10-22 13:15:00
8:35 AM,71.6,64.4,78,29.95,10.0,SSE,5.8,-,N/A,,Scattered Clouds,160,2012-10-22 13:35:00
8:55 AM,73.4,64.4,73,29.96,10.0,South,8.1,-,N/A,,Scattered Clouds,170,2012-10-22 13:55:00
9:15 AM,73.4,64.4,73,29.96,10.0,SSE,12.7,17.3,N/A,,Mostly Cloudy,160,2012-10-22 14:15:00
9:35 AM,73.4,64.4,73,29.97,10.0,South,13.8,19.6,N/A,,Overcast,180,2012-10-22 14:35:00
10:15 AM,73.4,62.6,69,29.97,10.0,South,13.8,23.0,N/A,Thunderstorm,Mostly Cloudy,180,2012-10-22 15:15:00
10:35 AM,73.4,62.6,69,30.00,10.0,SSW,12.7,19.6,N/A,Thunderstorm,Thunderstorm,210,2012-10-22 15:35:00
10:55 AM,73.4,62.6,69,30.04,10.0,NW,11.5,18.4,N/A,Thunderstorm,Thunderstorm,320,2012-10-22 15:55:00
11:15 AM,68.0,60.8,78,30.04,5.0,NNW,10.4,-,N/A,Rain-Thunderstorm,Heavy Thunderstorms and Rain,330,2012-10-22 16:15:00
11:35 AM,66.2,62.6,88,30.03,4.0,NNE,4.6,-,0.03,Rain-Thunderstorm,Rain,30,2012-10-22 16:35:00
12:15 PM,68.0,64.4,88,30.02,10.0,East,5.8,-,0.03,Rain,Light Rain,100,2012-10-22 17:15:00
12:35 PM,68.0,64.4,88,30.03,10.0,SE,3.5,-,0.05,,Overcast,140,2012-10-22 17:35:00
12:55 PM,68.0,64.4,88,30.01,10.0,East,4.6,-,0.07,,Overcast,100,2012-10-22 17:55:00
1:15 PM,68.0,64.4,88,30.01,10.0,SE,9.2,-,0.01,Thunderstorm,Overcast,130,2012-10-22 18:15:00
1:35 PM,68.0,64.4,88,30.00,10.0,ESE,8.1,-,0.03,Rain-Thunderstorm,Light Thunderstorms and Rain,120,2012-10-22 18:35:00
1:55 PM,66.2,64.4,94,29.99,7.0,SE,8.1,-,0.04,Rain-Thunderstorm,Light Thunderstorms and Rain,130,2012-10-22 18:55:00
2:15 PM,66.2,64.4,94,29.95,10.0,ESE,15.0,-,0.02,Rain-Thunderstorm,Light Thunderstorms and Rain,110,2012-10-22 19:15:00
2:35 PM,64.4,62.6,94,29.90,10.0,ESE,18.4,24.2,0.03,Rain-Thunderstorm,Light Thunderstorms and Rain,110,2012-10-22 19:35:00
2:55 PM,66.2,62.6,88,29.90,10.0,SSE,12.7,29.9,0.05,Rain-Thunderstorm,Light Thunderstorms and Rain,150,2012-10-22 19:55:00
3:15 PM,66.2,62.6,88,29.91,10.0,SSE,12.7,17.3,0.02,Rain-Thunderstorm,Light Thunderstorms and Rain,160,2012-10-22 20:15:00
3:35 PM,66.2,64.4,94,29.89,4.0,SSE,10.4,16.1,0.03,Rain-Thunderstorm,Heavy Thunderstorms and Rain,150,2012-10-22 20:35:00
3:55 PM,68.0,64.4,88,29.91,10.0,South,12.7,19.6,0.06,Rain-Thunderstorm,Light Thunderstorms and Rain,180,2012-10-22 20:55:00
4:15 PM,68.0,64.4,88,29.89,10.0,SSE,15.0,23.0,0.03,Rain-Thunderstorm,Light Thunderstorms and Rain,150,2012-10-22 21:15:00
4:35 PM,69.8,68.0,94,29.90,10.0,SSE,12.7,-,0.07,,Mostly Cloudy,150,2012-10-22 21:35:00
4:55 PM,71.6,68.0,88,29.89,10.0,SSE,12.7,16.1,0.10,Thunderstorm,Scattered Clouds,150,2012-10-22 21:55:00
5:15 PM,71.6,68.0,88,29.89,10.0,SE,11.5,-,0.03,,Clear,140,2012-10-22 22:15:00
5:35 PM,71.6,66.2,83,29.89,10.0,North,-9999.0,-,0.06,,Clear,0,2012-10-22 22:35:00
5:55 PM,71.6,64.4,78,29.88,10.0,SE,8.1,-,0.09,,Clear,130,2012-10-22 22:55:00
6:15 PM,71.6,62.6,73,29.88,10.0,SE,8.1,-,0.02,,Mostly Cloudy,130,2012-10-22 23:15:00
6:35 PM,69.8,62.6,78,29.88,10.0,SE,9.2,-,0.04,,Overcast,140,2012-10-22 23:35:00
6:55 PM,69.8,62.6,78,29.88,10.0,SE,8.1,-,0.05,,Mostly Cloudy,140,2012-10-22 23:55:00
7:35 PM,69.8,62.6,78,29.89,10.0,SE,8.1,-,N/A,,Scattered Clouds,140,2012-10-23 00:35:00
7:55 PM,69.8,62.6,78,29.89,10.0,SSE,6.9,-,N/A,,Mostly Cloudy,150,2012-10-23 00:55:00
8:55 PM,68.0,60.8,78,29.90,10.0,Calm,Calm,-,N/A,,Clear,0,2012-10-23 01:55:00
9:15 PM,66.2,60.8,83,29.90,10.0,SE,6.9,-,N/A,,Clear,140,2012-10-23 02:15:00
9:55 PM,69.8,62.6,78,29.89,10.0,SSE,11.5,-,N/A,,Clear,150,2012-10-23 02:55:00
10:15 PM,71.6,64.4,78,29.89,10.0,SSE,12.7,-,N/A,,Clear,150,2012-10-23 03:15:00
10:35 PM,71.6,66.2,83,29.89,10.0,SSE,11.5,17.3,N/A,,Clear,160,2012-10-23 03:35:00
10:55 PM,73.4,68.0,83,29.89,10.0,SSE,12.7,19.6,N/A,,Clear,160,2012-10-23 03:55:00
11:15 PM,73.4,68.0,83,29.89,10.0,SSE,11.5,16.1,N/A,,Clear,160,2012-10-23 04:15:00
11:35 PM,73.4,68.0,83,29.89,10.0,SSE,12.7,19.6,N/A,,Clear,160,2012-10-23 04:35:00